This is the latest recevied weather packets stored in our database for station/object DO3HUM-5. If no packets are shown the sender has not sent any weather packets the latest 10 day(s).
| Time | Temp. | Humidity | Pressure | Rain* | Wind** | Luminosity | Snow |
|---|---|---|---|---|---|---|---|
| 1778099732 | 11.67° C | 90% | 1014.2 hPa | 0 mm | - | - | - |
| 1778099125 | 11.67° C | 89% | 1014.2 hPa | 0 mm | - | - | - |
| 1778098521 | 12.22° C | 90% | 1014.2 hPa | 0 mm | - | - | - |
| 1778097972 | 12.22° C | 90% | 1014.3 hPa | 0 mm | - | - | - |
| 1778097370 | 12.22° C | 89% | 1014.2 hPa | 0 mm | - | - | - |
| 1778096768 | 12.22° C | 89% | 1014 hPa | 0 mm | - | - | - |
| 1778096159 | 12.22° C | 89% | 1014 hPa | 0 mm | - | - | - |
| 1778095556 | 12.22° C | 90% | 1013.9 hPa | 0 mm | - | - | - |
| 1778094947 | 12.78° C | 90% | 1013.8 hPa | 0 mm | - | - | - |
| 1778094346 | 12.78° C | 90% | 1013.4 hPa | 0.25 mm | - | - | - |
| 1778093737 | 12.78° C | 90% | 1013.2 hPa | 0.25 mm | - | - | - |
| 1778093134 | 12.78° C | 90% | 1012.9 hPa | 0.51 mm | - | - | - |
| 1778092532 | 12.78° C | 89% | 1012.8 hPa | 1.27 mm | - | - | - |
| 1778091924 | 12.78° C | 90% | 1012.7 hPa | 1.78 mm | - | - | - |
| 1778091321 | 12.78° C | 90% | 1012.8 hPa | 2.79 mm | - | - | - |
| 1778090743 | 13.33° C | 90% | 1012.8 hPa | 2.29 mm | - | - | - |
| 1778090134 | 13.33° C | 90% | 1012.7 hPa | 2.29 mm | - | - | - |
| 1778089531 | 13.33° C | 90% | 1012.5 hPa | 2.03 mm | - | - | - |
| 1778088923 | 13.89° C | 88% | 1012.7 hPa | 1.52 mm | - | - | - |
| 1778088320 | 13.89° C | 86% | 1012.8 hPa | 1.02 mm | - | - | - |
| 1778087774 | 14.44° C | 85% | 1012.8 hPa | 0 mm | - | - | - |
| 1778087169 | 14.44° C | 84% | 1012.8 hPa | 0 mm | - | - | - |
| 1778086567 | 14.44° C | 84% | 1012.6 hPa | 0 mm | - | - | - |
| 1778085958 | 15° C | 83% | 1012.4 hPa | 0 mm | - | - | - |
| 1778085355 | 15° C | 81% | 1012.4 hPa | 0 mm | - | - | - |
* Rain latest hour (hover to see other rain measurements)
** Current wind speed in m/s (hover to see current wind gust speed)